datetime,flow
1992-05-08,2.4
1992-05-09,2.4
1992-05-10,2.2
1992-05-11,2.2
1992-05-12,2.2
1992-05-13,2.2
1992-05-14,2.2
1992-05-15,2.2
1992-05-16,2.7
1992-05-17,2.9
1992-05-18,3.0
1992-05-19,3.2
1992-05-20,5.7
1992-05-21,3.0
1992-05-22,2.8
1992-05-23,2.7
1992-05-24,2.7
1992-05-25,2.7
1992-05-26,2.7
1992-05-27,2.7
1992-05-28,2.8
1992-05-29,2.8
1992-05-30,2.9
1992-05-31,3.0
1992-06-01,3.0
1992-06-02,3.0
1992-06-03,3.1
1992-06-04,2.9
1992-06-05,2.9
1992-06-06,2.8
1992-06-07,2.9
1992-06-08,2.8
1992-06-09,2.7
1992-06-10,2.6
1992-06-11,2.6
1992-06-12,2.4
1992-06-13,2.5
1992-06-14,3.2
1992-06-15,3.0
1992-06-16,3.2
1992-06-17,3.3
1992-06-18,3.2
1992-06-19,2.9
1992-06-20,2.7
1992-06-21,2.4
1992-06-22,2.0
1992-06-23,1.9
1992-06-24,2.1
1992-06-25,3.6
1992-06-26,3.0
1992-06-27,2.9
1992-06-28,2.7
1992-06-29,3.0
1992-06-30,3.3
1992-07-01,3.4
1992-07-02,3.1
1992-07-03,2.8
1992-07-04,2.9
1992-07-05,3.2
1992-07-06,3.4
1992-07-07,3.1
1992-07-08,2.4
1992-07-09,1.9
1992-07-10,1.8
1992-07-11,1.4
1992-07-12,1.4
1992-07-13,1.3
1992-07-14,0.98
1992-07-15,0.8
1992-07-16,0.74
1992-07-17,0.65
1992-07-18,0.6900000000000001
1992-07-19,0.59
1992-07-20,0.76
1992-07-21,0.93
1992-07-22,0.73
1992-07-23,0.85
1992-07-24,0.9
1992-07-25,0.86
1992-07-26,0.79
1992-07-27,0.77
1992-07-28,0.67
1992-07-29,0.55
1992-07-30,0.4
1992-07-31,0.30000000000000004
1992-08-01,0.21
1992-08-02,0.13
1992-08-03,0.09
1992-08-04,0.08
1992-08-05,0.07
1992-08-06,0.06
1992-08-07,0.06
1992-08-08,0.07
1992-08-09,0.08
1992-08-10,0.06
1992-08-11,0.04
1992-08-12,0.04
1992-08-13,0.06
1992-08-14,0.06
1992-08-15,0.03
1992-08-16,0.12
1992-08-17,0.16
1992-08-18,0.15
1992-08-19,0.18
1992-08-20,0.14
1992-08-21,0.12
1992-08-22,0.13
1992-08-23,0.14
1992-08-24,0.18
1992-08-25,0.16
1992-08-26,0.14
1992-08-27,0.12
1992-08-28,0.1
1992-08-29,0.07
1992-08-30,0.06
1992-08-31,0.06
1992-09-01,0.06
1992-09-02,0.03
1992-09-03,0.07
1992-09-04,0.1
1992-09-05,0.11
1992-09-06,0.11
1992-09-07,0.15
1992-09-08,0.15
1992-09-09,0.13
1992-09-10,0.14
1992-09-11,0.36
1992-09-12,0.32
1992-09-13,0.32
1992-09-14,0.41000000000000003
1992-09-15,0.45
1992-09-16,0.48
1992-09-17,0.52
1992-09-18,0.58
1992-09-19,0.53
1992-09-20,0.53
1992-09-21,0.52
1992-09-22,0.52
1992-09-23,0.46
1992-09-24,0.54
1992-09-25,0.64
1992-09-26,0.66
1992-09-27,0.66
1992-09-28,0.68
1992-09-29,0.6900000000000001
1992-09-30,0.71
1992-10-01,0.68
1992-10-02,0.77
1992-10-03,0.98
1992-10-04,0.96
1992-10-05,0.96
1992-10-06,0.9500000000000001
1992-10-07,0.93
1992-10-08,0.97
1992-10-09,1.0
1992-10-10,1.0
1992-10-11,0.98
1992-10-12,0.9500000000000001
1992-10-13,0.9400000000000001
1992-10-14,0.9400000000000001
1992-10-15,0.96
1992-10-16,1.0
1992-10-17,1.0
1992-10-18,1.0
1992-10-19,1.0
1992-10-20,1.1
1992-10-21,1.4
1992-10-22,1.2
1992-10-23,1.2
1992-10-24,1.2
1992-10-25,1.2
1992-10-26,1.2
1992-10-27,1.2
1992-10-28,1.4
1992-10-29,1.7000000000000002
1992-10-30,2.2
1992-10-31,2.4
1992-11-01,3.5
1992-11-02,3.2
1992-11-03,2.8
1992-11-04,2.8
1992-11-05,2.7
1992-11-06,2.7
1992-11-07,2.7
1992-11-08,2.6
1992-11-09,2.6
1992-11-10,2.5
1992-11-11,2.5
1992-11-12,2.5
1992-11-13,2.5
1992-11-14,2.5
1992-11-15,2.5
1992-11-16,2.5
1992-11-17,2.5
1992-11-18,2.5
1992-11-19,2.6
1992-11-20,2.5
1992-11-21,2.6
1992-11-22,3.4
1992-11-23,2.9
1992-11-24,2.6
1992-11-25,2.7
1992-11-26,2.8
1992-11-27,2.8
1992-11-28,3.0
1992-11-29,2.9
1992-11-30,2.7
1992-12-01,2.9
1992-12-02,2.5
1992-12-03,2.0
1992-12-04,1.5
1992-12-05,0.0
1992-12-06,0.0
1992-12-07,0.0
1992-12-08,0.0
1992-12-09,0.0
1992-12-10,0.0
1992-12-11,0.0
1992-12-12,0.0
1992-12-13,0.0
1992-12-14,0.0
1992-12-15,0.0
1992-12-16,0.0
1992-12-17,0.0
1992-12-18,0.0
1992-12-19,0.0
1992-12-20,0.0
1992-12-21,0.0
1992-12-22,0.0
1992-12-23,0.0
1992-12-24,0.0
1992-12-25,0.0
1992-12-26,0.0
1992-12-27,0.0
1992-12-28,0.0
1992-12-29,0.0
1992-12-30,0.0
1992-12-31,0.0
1993-01-01,0.0
1993-01-02,0.0
1993-01-03,0.0
1993-01-04,0.0
1993-01-05,0.0
1993-01-06,0.0
1993-01-07,0.0
1993-01-08,0.0
1993-01-09,0.0
1993-01-10,0.0
1993-01-11,0.0
1993-01-12,0.0
1993-01-13,0.0
1993-01-14,0.0
1993-01-15,0.0
1993-01-16,0.0
1993-01-17,0.0
1993-01-18,0.0
1993-01-19,0.0
1993-01-20,0.0
1993-01-21,0.0
1993-01-22,0.0
1993-01-23,0.0
1993-01-24,0.0
1993-01-25,0.0
1993-01-26,0.0
1993-01-27,0.0
1993-01-28,0.0
1993-01-29,0.0
1993-01-30,0.0
1993-01-31,0.0
1993-02-01,0.0
1993-02-02,0.0
1993-02-03,0.0
1993-02-04,0.0
1993-02-05,0.0
1993-02-06,0.0
1993-02-07,0.0
1993-02-08,0.0
1993-02-09,0.0
1993-02-10,0.0
1993-02-11,0.0
1993-02-12,0.0
1993-02-13,0.0
1993-02-14,0.0
1993-02-15,0.0
1993-02-16,0.0
1993-02-17,0.0
1993-02-18,0.0
1993-02-19,0.0
1993-02-20,0.0
1993-02-21,0.0
1993-02-22,0.0
1993-02-23,0.0
1993-02-24,0.0
1993-02-25,0.0
1993-02-26,0.0
1993-02-27,0.0
1993-02-28,0.0
1993-03-01,0.0
1993-03-02,0.0
1993-03-03,0.0
1993-03-04,0.0
1993-03-05,0.0
1993-03-06,0.0
1993-03-07,0.0
1993-03-08,0.0
1993-03-09,0.0
1993-03-10,0.0
1993-03-11,0.0
1993-03-12,0.0
1993-03-13,0.0
1993-03-14,1.1
1993-03-15,2.5
1993-03-16,5.8
1993-03-17,16.0
1993-03-18,55.0
1993-03-19,90.0
1993-03-20,95.0
1993-03-21,95.0
1993-03-22,90.0
1993-03-23,80.0
1993-03-24,70.0
1993-03-25,65.0
1993-03-26,55.0
1993-03-27,50.0
1993-03-28,44.0
1993-03-29,42.0
1993-03-30,46.0
1993-03-31,48.0
1993-04-01,50.0
1993-04-02,60.0
1993-04-03,65.0
1993-04-04,70.0
1993-04-05,65.0
1993-04-06,60.0
1993-04-07,55.0
1993-04-08,50.0
1993-04-09,42.0
1993-04-10,38.0
1993-04-11,34.0
1993-04-12,32.0
1993-04-13,27.0
1993-04-14,22.0
1993-04-15,20.0
1993-04-16,16.0
1993-04-17,20.0
1993-04-18,26.0
1993-04-19,18.0
1993-04-20,12.0
1993-04-21,10.0
1993-04-22,8.1
1993-04-23,8.4
1993-04-24,7.6
1993-04-25,4.7
1993-04-26,4.5
1993-04-27,4.4
1993-04-28,4.0
1993-04-29,4.2
1993-04-30,9.6
1993-05-01,5.6
1993-05-02,5.3
1993-05-03,6.5
1993-05-04,7.5
1993-05-05,6.4
1993-05-06,5.7
1993-05-07,5.3
1993-05-08,5.2
1993-05-09,4.8
1993-05-10,5.4
1993-05-11,4.6
1993-05-12,4.2
1993-05-13,4.4
1993-05-14,4.2
1993-05-15,3.9
1993-05-16,3.8
1993-05-17,3.9
1993-05-18,3.9
1993-05-19,3.8
1993-05-20,3.6
1993-05-21,3.6
1993-05-22,3.4
1993-05-23,3.1
1993-05-24,2.8
1993-05-25,4.4
1993-05-26,4.6
1993-05-27,4.6
1993-05-28,4.1
1993-05-29,3.9
1993-05-30,3.7
1993-05-31,5.0
1993-06-01,6.7
1993-06-02,7.1
1993-06-03,7.1
1993-06-04,6.5
1993-06-05,7.8
1993-06-06,6.7
1993-06-07,5.5
1993-06-08,5.2
1993-06-09,4.9
1993-06-10,4.5
1993-06-11,3.9
1993-06-12,3.7
1993-06-13,3.6
1993-06-14,3.4
1993-06-15,3.1
1993-06-16,2.9
1993-06-17,2.8
1993-06-18,2.8
1993-06-19,2.7
1993-06-20,2.5
1993-06-21,2.3
1993-06-22,2.2
1993-06-23,2.2
1993-06-24,2.1
1993-06-25,2.0
1993-06-26,1.9
1993-06-27,1.7000000000000002
1993-06-28,1.6
1993-06-29,1.5
1993-06-30,1.5
1993-07-01,1.4
1993-07-02,1.2
1993-07-03,1.3
1993-07-04,1.3
1993-07-05,1.2
1993-07-06,1.2
1993-07-07,1.1
1993-07-08,1.1
1993-07-09,1.2
1993-07-10,1.2
1993-07-11,1.0
1993-07-12,0.96
1993-07-13,0.86
1993-07-14,0.8300000000000001
1993-07-15,0.9500000000000001
1993-07-16,0.98
1993-07-17,0.91
1993-07-18,0.81
1993-07-19,0.8300000000000001
1993-07-20,0.8200000000000001
1993-07-21,0.79
1993-07-22,1.1
1993-07-23,1.2
1993-07-24,1.1
1993-07-25,1.0
1993-07-26,0.98
1993-07-27,0.93
1993-07-28,0.8200000000000001
1993-07-29,0.71
1993-07-30,0.64
1993-07-31,0.61
1993-08-01,0.59
1993-08-02,0.79
1993-08-03,0.85
1993-08-04,0.73
1993-08-05,0.6900000000000001
1993-08-06,0.65
1993-08-07,0.72
1993-08-08,0.76
1993-08-09,0.71
1993-08-10,0.6000000000000001
1993-08-11,0.63
1993-08-12,1.0
1993-08-13,1.2
1993-08-14,1.2
1993-08-15,1.7000000000000002
1993-08-16,2.1
1993-08-17,2.2
1993-08-18,2.4
1993-08-19,2.5
1993-08-20,2.5
1993-08-21,2.4
1993-08-22,2.3
1993-08-23,2.1
1993-08-24,1.9
1993-08-25,1.9
1993-08-26,1.9
1993-08-27,1.9
1993-08-28,1.9
1993-08-29,1.7000000000000002
1993-08-30,1.7000000000000002
1993-08-31,1.5
1993-09-01,1.3
1993-09-02,1.4
1993-09-03,1.7000000000000002
1993-09-04,2.0
1993-09-05,2.1
1993-09-06,2.3
1993-09-07,2.1
1993-09-08,1.8
1993-09-09,1.7000000000000002
1993-09-10,1.6
1993-09-11,1.6
1993-09-12,1.5
1993-09-13,1.6
1993-09-14,1.4
1993-09-15,1.4
1993-09-16,1.7000000000000002
1993-09-17,2.7
1993-09-18,2.2
1993-09-19,1.8
1993-09-20,1.5
1993-09-21,1.2
1993-09-22,1.2
1993-09-23,1.1
1993-09-24,1.0
1993-09-25,1.0
1993-09-26,1.0
1993-09-27,0.9500000000000001
1993-09-28,0.92
1993-09-29,0.93
1993-09-30,0.8
1993-10-01,0.5700000000000001
1993-10-02,0.91
1993-10-03,1.2
1993-10-04,1.1
1993-10-05,0.77
1993-10-06,1.1
1993-10-07,1.4
1993-10-08,1.3
1993-10-09,1.5
1993-10-10,1.7000000000000002
1993-10-11,1.8
1993-10-12,1.7000000000000002
1993-10-13,1.6
1993-10-14,1.8
1993-10-15,2.0
1993-10-16,2.1
1993-10-17,1.9
1993-10-18,1.7000000000000002
1993-10-19,1.7000000000000002
1993-10-20,2.0
1993-10-21,2.0
1993-10-22,1.8
1993-10-23,1.8
1993-10-24,1.8
1993-10-25,1.8
1993-10-26,1.7000000000000002
1993-10-27,1.8
1993-10-28,1.9
1993-10-29,1.8
1993-10-30,1.8
1993-10-31,1.9
1993-11-01,1.9
1993-11-02,1.9
1993-11-03,1.9
1993-11-04,1.9
1993-11-05,1.9
1993-11-06,1.8
1993-11-07,1.8
1993-11-08,1.8
1993-11-09,1.8
1993-11-10,1.8
1993-11-11,1.8
1993-11-12,1.7000000000000002
1993-11-13,1.6
1993-11-14,1.5
1993-11-15,1.6
1993-11-16,1.6
1993-11-17,1.5
1993-11-18,1.5
1993-11-19,1.5
1993-11-20,1.5
1993-11-21,1.5
1993-11-22,1.5
1993-11-23,1.8
1993-11-24,1.9
1993-11-25,2.3
1993-11-26,2.5
1993-11-27,2.5
1993-11-28,3.1
1993-11-29,3.5
1993-11-30,2.9
1993-12-01,3.2
1993-12-02,3.3
1993-12-03,2.7
1993-12-04,2.6
1993-12-05,2.4
1993-12-06,2.4
1993-12-07,2.8
1993-12-08,6.5
1993-12-09,6.0
1993-12-10,8.7
1993-12-11,14.0
1993-12-12,9.3
1993-12-13,6.9
1993-12-14,5.9
1993-12-15,5.0
1993-12-16,4.5
1993-12-17,4.1
1993-12-18,3.9
1993-12-19,3.9
1993-12-20,3.8
1993-12-21,3.8
1993-12-22,3.9
1993-12-23,4.1
1993-12-24,4.1
1993-12-25,4.0
1993-12-26,4.0
1993-12-27,4.0
1993-12-28,4.0
1993-12-29,4.0
1993-12-30,3.9
1993-12-31,3.7
1994-01-01,3.6
1994-01-02,3.8
1994-01-03,5.0
1994-01-04,14.0
1994-01-05,18.0
1994-01-06,6.3
1994-01-07,4.9
1994-01-08,4.6
1994-01-09,4.2
1994-01-10,3.9
1994-01-11,3.7
1994-01-12,3.5
1994-01-13,3.3
1994-01-14,3.3
1994-01-15,3.3
1994-01-16,3.3
1994-01-17,3.3
1994-01-18,3.3
1994-01-19,3.3
1994-01-20,3.3
1994-01-21,3.3
1994-01-22,3.4
1994-01-23,6.9
1994-01-24,10.0
1994-01-25,6.1
1994-01-26,4.7
1994-01-27,4.2
1994-01-28,4.1
1994-01-29,4.0
1994-01-30,4.0
1994-01-31,4.0
1994-02-01,4.0
1994-02-02,4.1
1994-02-03,4.2
1994-02-04,4.2
1994-02-05,4.2
1994-02-06,4.2
1994-02-07,4.3
1994-02-08,4.2
1994-02-09,4.2
1994-02-10,4.2
1994-02-11,3.9
1994-02-12,4.0
1994-02-13,4.0
1994-02-14,3.9
1994-02-15,3.9
1994-02-16,4.0
1994-02-17,4.4
1994-02-18,4.8
1994-02-19,4.5
1994-02-20,4.6
1994-02-21,4.4
1994-02-22,4.3
1994-02-23,3.9
1994-02-24,4.1
1994-02-25,6.6
1994-02-26,11.0
1994-02-27,13.0
1994-02-28,11.0
1994-03-01,14.0
1994-03-02,15.0
1994-03-03,8.5
1994-03-04,6.1
1994-03-05,4.9
1994-03-06,4.5
1994-03-07,4.5
1994-03-08,4.1
1994-03-09,4.0
1994-03-10,3.8
1994-03-11,3.7
1994-03-12,3.6
1994-03-13,3.6
1994-03-14,3.6
1994-03-15,3.8
1994-03-16,3.6
1994-03-17,3.5
1994-03-18,3.5
1994-03-19,3.6
1994-03-20,3.5
1994-03-21,3.5
1994-03-22,3.2
1994-03-23,3.4
1994-03-24,3.2
1994-03-25,3.1
1994-03-26,3.0
1994-03-27,2.9
1994-03-28,3.1
1994-03-29,3.1
1994-03-30,4.0
1994-03-31,4.8
1994-04-01,4.5
1994-04-02,4.4
1994-04-03,4.2
1994-04-04,3.8
1994-04-05,3.6
1994-04-06,3.8
1994-04-07,3.8
1994-04-08,3.9
1994-04-09,3.8
1994-04-10,3.5
1994-04-11,3.4
1994-04-12,3.2
1994-04-13,2.9
1994-04-14,2.8
1994-04-15,2.7
1994-04-16,2.7
1994-04-17,2.5
1994-04-18,2.4
1994-04-19,2.3
1994-04-20,2.3
1994-04-21,2.2
1994-04-22,2.1
1994-04-23,2.2
1994-04-24,2.6
1994-04-25,3.0
1994-04-26,3.3
1994-04-27,3.0
1994-04-28,2.8
1994-04-29,2.8
1994-04-30,3.3
1994-05-01,2.9
1994-05-02,2.6
1994-05-03,2.6
1994-05-04,2.8
1994-05-05,3.2
1994-05-06,3.2
1994-05-07,2.9
1994-05-08,2.8
1994-05-09,2.7
1994-05-10,2.6
1994-05-11,2.5
1994-05-12,2.5
1994-05-13,2.5
1994-05-14,2.5
1994-05-15,2.5
1994-05-16,2.7
1994-05-17,2.7
1994-05-18,2.6
1994-05-19,2.7
1994-05-20,2.6
1994-05-21,2.9
1994-05-22,3.5
1994-05-23,3.3
1994-05-24,3.0
1994-05-25,2.9
1994-05-26,2.7
1994-05-27,2.7
1994-05-28,2.6
1994-05-29,2.6
1994-05-30,2.5
1994-05-31,2.4
1994-06-01,2.2
1994-06-02,1.8
1994-06-03,1.6
1994-06-04,1.4
1994-06-05,1.4
1994-06-06,1.2
1994-06-07,1.0
1994-06-08,0.76
1994-06-09,0.4
1994-06-10,0.18
1994-06-11,0.07
1994-06-12,0.02
1994-06-13,0.01
1994-06-14,0.01
1994-06-15,0.01
1994-06-16,0.01
1994-06-17,0.0
1994-06-18,0.0
1994-06-19,0.0
1994-06-20,0.0
1994-06-21,0.0
1994-06-22,0.0
1994-06-23,0.0
1994-06-24,0.0
1994-06-25,0.0
1994-06-26,0.0
1994-06-27,0.0
1994-06-28,0.0
1994-06-29,0.0
1994-06-30,0.0
1994-07-01,0.0
1994-07-02,0.0
1994-07-03,0.0
1994-07-04,0.0
1994-07-05,0.0
1994-07-06,0.0
1994-07-07,0.0
1994-07-08,0.0
1994-07-09,0.0
1994-07-10,0.0
1994-07-11,0.0
1994-07-12,0.0
1994-07-13,0.0
1994-07-14,0.0
1994-07-15,0.0
1994-07-16,0.0
1994-07-17,0.0
1994-07-18,0.0
1994-07-19,0.0
1994-07-20,0.0
1994-07-21,0.0
1994-07-22,0.0
1994-07-23,0.0
1994-07-24,0.0
1994-07-25,0.0
1994-07-26,0.0
1994-07-27,0.0
1994-07-28,0.0
1994-07-29,0.0
1994-07-30,0.0
1994-07-31,0.0
1994-08-01,0.0
1994-08-02,0.0
1994-08-03,0.0
1994-08-04,0.0
1994-08-05,0.0
1994-08-06,0.0
1994-08-07,0.0
1994-08-08,0.0
1994-08-09,0.0
1994-08-10,0.0
1994-08-11,0.0
1994-08-12,0.0
1994-08-13,0.0
1994-08-14,0.0
1994-08-15,0.0
1994-08-16,0.0
1994-08-17,0.0
1994-08-18,0.0
1994-08-19,0.0
1994-08-20,0.0
1994-08-21,0.0
1994-08-22,0.0
1994-08-23,0.0
1994-08-24,0.0
1994-08-25,0.0
1994-08-26,0.0
1994-08-27,0.0
1994-08-28,0.0
1994-08-29,0.0
1994-08-30,0.0
1994-08-31,0.0
1994-09-01,0.0
1994-09-02,0.0
1994-09-03,0.0
1994-09-04,0.0
1994-09-05,0.0
1994-09-06,0.0
1994-09-07,0.0
1994-09-08,0.0
1994-09-09,0.0
1994-09-10,0.0
1994-09-11,0.0
1994-09-12,0.0
1994-09-13,0.0
1994-09-14,0.0
1994-09-15,0.0
1994-09-16,0.0
1994-09-17,0.0
1994-09-18,0.0
1994-09-19,0.0
1994-09-20,0.0
1994-09-21,0.0
1994-09-22,0.0
1994-09-23,0.0
1994-09-24,0.0
1994-09-25,0.0
1994-09-26,0.0
1994-09-27,0.0
1994-09-28,0.0
1994-09-29,0.0
1994-09-30,0.0
1994-10-01,0.0
1994-10-02,0.0
1994-10-03,0.0
1994-10-04,0.0
1994-10-05,0.0
1994-10-06,0.0
1994-10-07,0.0
1994-10-08,0.0
1994-10-09,0.0
1994-10-10,0.0
1994-10-11,0.0
1994-10-12,0.0
1994-10-13,0.0
1994-10-14,0.0
1994-10-15,0.0
1994-10-16,0.0
1994-10-17,0.0
1994-10-18,0.0
1994-10-19,0.0
1994-10-20,0.0
1994-10-21,0.0
1994-10-22,0.0
1994-10-23,0.0
1994-10-24,0.0
1994-10-25,0.0
1994-10-26,0.0
1994-10-27,0.0
1994-10-28,0.0
1994-10-29,0.0
1994-10-30,0.0
1994-10-31,0.0
1994-11-01,0.0
1994-11-02,0.0
1994-11-03,0.0
1994-11-04,0.0
1994-11-05,0.0
1994-11-06,0.0
1994-11-07,0.0
1994-11-08,0.0
1994-11-09,0.0
1994-11-10,0.0
1994-11-11,0.0
1994-11-12,0.0
1994-11-13,0.0
1994-11-14,0.0
1994-11-15,0.0
1994-11-16,0.0
1994-11-17,0.0
1994-11-18,0.0
1994-11-19,0.0
1994-11-20,0.0
1994-11-21,0.0
1994-11-22,0.0
1994-11-23,0.0
1994-11-24,0.0
1994-11-25,0.0
1994-11-26,0.0
1994-11-27,0.0
1994-11-28,0.0
1994-11-29,0.0
1994-11-30,0.0
1994-12-01,0.01
1994-12-02,0.83
1994-12-03,2.0
1994-12-04,1.9
1994-12-05,1.1
1994-12-06,0.8
1994-12-07,0.4
1994-12-08,0.0
1994-12-09,0.0
1994-12-10,0.0
1994-12-11,0.0
1994-12-12,0.0
1994-12-13,0.0
1994-12-14,0.0
1994-12-15,0.0
1994-12-16,1.1
1994-12-17,1.3
1994-12-18,1.0
1994-12-19,0.7
1994-12-20,0.3
1994-12-21,0.0
1994-12-22,0.0
1994-12-23,0.0
1994-12-24,0.0
1994-12-25,0.0
1994-12-26,0.0
1994-12-27,0.0
1994-12-28,0.0
1994-12-29,0.0
1994-12-30,0.0
1994-12-31,0.0
1995-01-01,0.0
1995-01-02,0.0
1995-01-03,0.0
1995-01-04,0.0
1995-01-05,0.0
1995-01-06,0.2
1995-01-07,0.3
1995-01-08,1.0
1995-01-09,2.8
1995-01-10,6.8
1995-01-11,7.6
1995-01-12,11.0
1995-01-13,14.0
1995-01-14,16.0
1995-01-15,19.0
1995-01-16,17.0
1995-01-17,6.0
1995-01-18,3.9
1995-01-19,2.5
1995-01-20,2.3
1995-01-21,2.1
1995-01-22,2.0
1995-01-23,1.9
1995-01-24,1.9
1995-01-25,1.9
1995-01-26,1.9
1995-01-27,2.0
1995-01-28,2.8
1995-01-29,4.1
1995-01-30,6.0
1995-01-31,8.0
1995-02-01,10.0
1995-02-02,14.0
1995-02-03,17.0
1995-02-04,21.0
1995-02-05,22.0
1995-02-06,21.0
1995-02-07,18.0
1995-02-08,16.0
1995-02-09,12.0
1995-02-10,7.0
1995-02-11,4.5
1995-02-12,3.0
1995-02-13,2.2
1995-02-14,1.9
1995-02-15,1.7
1995-02-16,1.9
1995-02-17,2.0
1995-02-18,3.0
1995-02-19,4.0
1995-02-20,7.0
1995-02-21,6.3
1995-02-22,5.3
1995-02-23,4.7
1995-02-24,4.0
1995-02-25,3.5
1995-02-26,3.2
1995-02-27,3.1
1995-02-28,3.0
1995-03-01,2.9
1995-03-02,2.9
1995-03-03,2.9
1995-03-04,2.8
1995-03-05,2.3
1995-03-06,1.7
1995-03-07,2.2
1995-03-08,3.1
1995-03-09,6.0
1995-03-10,7.5
1995-03-11,7.0
1995-03-12,3.0
1995-03-13,2.0
1995-03-14,10.0
1995-03-15,9.0
1995-03-16,6.0
1995-03-17,4.5
1995-03-18,7.0
1995-03-19,6.2
1995-03-20,7.2
1995-03-21,5.8
1995-03-22,4.0
1995-03-23,5.1
1995-03-24,6.2
1995-03-25,7.0
1995-03-26,7.5
1995-03-27,7.8
1995-03-28,7.5
1995-03-29,7.0
1995-03-30,6.4
1995-03-31,6.3
1995-04-01,6.2
1995-04-02,5.8
1995-04-03,5.5
1995-04-04,5.0
1995-04-05,4.9
1995-04-06,5.4
1995-04-07,8.5
1995-04-08,8.3
1995-04-09,6.9
1995-04-10,5.5
1995-04-11,4.6
1995-04-12,4.8
1995-04-13,7.4
1995-04-14,6.2
1995-04-15,4.8
1995-04-16,3.9
1995-04-17,3.3
1995-04-18,2.6
1995-04-19,2.4
1995-04-20,2.5
1995-04-21,2.5
1995-04-22,2.1
1995-04-23,1.7
1995-04-24,1.5
1995-04-25,1.2
1995-04-26,1.1
1995-04-27,1.9
1995-04-28,3.4
1995-04-29,4.5
1995-04-30,4.0
1995-05-01,6.9
1995-05-02,5.9
1995-05-03,4.3
1995-05-04,7.4
1995-05-05,6.0
1995-05-06,4.0
1995-05-07,3.3
1995-05-08,3.3
1995-05-09,3.3
1995-05-10,3.2
1995-05-11,2.9
1995-05-12,2.7
1995-05-13,2.4
1995-05-14,2.2
1995-05-15,2.0
1995-05-16,1.9
1995-05-17,1.8
1995-05-18,1.7
1995-05-19,1.5
1995-05-20,1.4
1995-05-21,1.6
1995-05-22,2.3
1995-05-23,2.1
1995-05-24,1.9
1995-05-25,1.8
1995-05-26,1.6
1995-05-27,1.4
1995-05-28,1.3
1995-05-29,1.2
1995-05-30,1.0
1995-05-31,0.45
1995-06-01,0.42
1995-06-02,0.45
1995-06-03,0.35
1995-06-04,0.24
1995-06-05,0.1
1995-06-06,0.08
1995-06-07,0.31
1995-06-08,0.36
1995-06-09,0.27
1995-06-10,0.11
1995-06-11,0.04
1995-06-12,0.01
1995-06-13,0.0
1995-06-14,0.08
1995-06-15,0.85
1995-06-16,1.3
1995-06-17,1.6
1995-06-18,1.7
1995-06-19,1.8
1995-06-20,1.9
1995-06-21,1.9
1995-06-22,1.9
1995-06-23,1.6
1995-06-24,1.1
1995-06-25,0.58
1995-06-26,0.22
1995-06-27,0.02
1995-06-28,0.01
1995-06-29,0.0
1995-06-30,0.0
1995-07-01,0.0
1995-07-02,0.0
1995-07-03,0.0
1995-07-04,0.0
1995-07-05,0.0
1995-07-06,0.0
1995-07-07,0.0
1995-07-08,0.0
1995-07-09,0.0
1995-07-10,0.0
1995-07-11,0.0
1995-07-12,0.0
1995-07-13,0.0
1995-07-14,0.0
1995-07-15,0.0
1995-07-16,0.0
1995-07-17,0.0
1995-07-18,0.0
1995-07-19,0.0
1995-07-20,0.0
1995-07-21,0.0
1995-07-22,0.0
1995-07-23,0.0
1995-07-24,0.0
1995-07-25,0.0
1995-07-26,0.0
1995-07-27,0.0
1995-07-28,0.0
1995-07-29,0.0
1995-07-30,0.0
1995-07-31,0.0
1995-08-01,0.0
1995-08-02,0.0
1995-08-03,0.0
1995-08-04,0.0
1995-08-05,0.0
1995-08-06,0.0
1995-08-07,0.0
1995-08-08,0.0
1995-08-09,0.0
1995-08-10,0.0
1995-08-11,0.0
1995-08-12,0.0
1995-08-13,0.0
1995-08-14,0.0
1995-08-15,0.0
1995-08-16,0.0
1995-08-17,0.0
1995-08-18,0.0
1995-08-19,0.0
1995-08-20,0.0
1995-08-21,0.0
1995-08-22,0.0
1995-08-23,0.0
1995-08-24,0.0
1995-08-25,0.0
1995-08-26,0.0
1995-08-27,0.0
1995-08-28,0.0
1995-08-29,0.0
1995-08-30,0.0
1995-08-31,0.0
1995-09-01,0.0
1995-09-02,0.0
1995-09-03,0.0
1995-09-04,0.0
1995-09-05,0.0
1995-09-06,0.0
1995-09-07,0.0
1995-09-08,0.0
1995-09-09,0.0
1995-09-10,0.0
1995-09-11,0.0
1995-09-12,0.0
1995-09-13,0.0
1995-09-14,0.0
1995-09-15,0.0
1995-09-16,0.0
1995-09-17,0.0
1995-09-18,0.0
1995-09-19,0.0
1995-09-20,0.0
1995-09-21,0.0
1995-09-22,0.0
1995-09-23,0.0
1995-09-24,0.0
1995-09-25,0.0
1995-09-26,0.0
1995-09-27,0.0
1995-09-28,0.0
1995-09-29,0.0
1995-09-30,0.0
1995-10-01,0.0
1995-10-02,0.0
1995-10-03,0.0
1995-10-04,0.0
1995-10-05,0.0
1995-10-06,0.0
1995-10-07,0.0
1995-10-08,0.0
1995-10-09,0.0
1995-10-10,0.0
1995-10-11,0.0
1995-10-12,0.0
1995-10-13,0.0
1995-10-14,0.0
1995-10-15,0.0
1995-10-16,0.0
1995-10-17,0.0
1995-10-18,0.0
1995-10-19,0.0
1995-10-20,0.0
1995-10-21,0.0
1995-10-22,0.0
1995-10-23,0.0
1995-10-24,0.0
